Location: Cardiff
(53.7833°N, 113.6000°W)
Time: 04:58:35
(UTC+00:00)

SO-50 - Pass Details

Date: 07 December 2023
Orbit: 608 x 660 km, 64.6° (Epoch: 02 March)

Event Time Altitude Azimuth Distance (km) Brightness Sun altitude
Exits shadow 13:47:13 20° 319° (NW) 1,476 ? -15.0°
Maximum altitude 13:48:41 24° 347° (NNW) 1,343 ? -14.8°
Drops below altitude 10° 13:52:26 10° 41° (NE) 2,030 ? -14.3°
Sets 13:55:05 0° 56° (NE) 2,929 ? -13.9°
